Weather History for Charlottetown, PE

Change the Weather History Date:

Thursday, March 27, 2014

  Actual Average Record
Temperature  
Mean Temperature 24 °F -  
Max Temperature 28 °F 42 °F 50 °F (1998)
Min Temperature 21 °F 28 °F 19 °F (2005)
Degree Days  
Heating Degree Days 40    
Moisture  
Dew Point 15 °F    
Average Humidity 70    
Maximum Humidity 93    
Minimum Humidity 34    
Precipitation  
Precipitation 0.12 in 0.12 in - ()
Sea Level Pressure  
Sea Level Pressure 29.51 in    
Wind  
Wind Speed 23 mph ()    
Max Wind Speed 33 mph    
Max Gust Speed 54 mph    
Visibility 6.7 miles    
Events Snow    
Averages and records for this station are not official NWS values.
T = Trace of Precipitation, MM = Missing Value Source: Averaged Metar Reports

Daily Weather History Graph

Daily Weather History Graph

Search for Another Location

Airport:

Trip Planner

Search our weather history database for the weather conditions in past years. The results will help you decide how hot, cold, wet, or windy it might be!

Date:

Astronomy

Mar. 27, 2014 Rise Set
Actual Time 7:01 AM ADT 7:34 PM ADT
Civil Twilight 6:31 AM ADT 8:04 PM ADT
Nautical Twilight 5:56 AM ADT 8:40 PM ADT
Astronomical Twilight 5:19 AM ADT 9:17 PM ADT
Moon 5:01 AM ADT (3/27) 4:06 PM ADT (3/27)
Length of Visible Light 13h 32m
Length of Day
12h 32m
Waning Crescent, 13% of the Moon is Illuminated
Mar 27
Waning Crescent
Mar 30
New
Apr 7
First Quarter
Apr 15
Full
Apr 22
Last Quarter

Hourly Weather History & Observations

Time (ADT) Temp. Windchill Dew Point Humidity Pressure Visibility Wind Dir Wind Speed Gust Speed Precip Events Conditions
12:00 AM 23.0 °F - 21.2 °F 93% 28.95 in 0.1 mi North - - N/A Snow Heavy Snow
1:00 AM 23.0 °F - 21.2 °F 93% 28.94 in 0.1 mi North - - N/A Snow Heavy Snow
2:00 AM 23.0 °F 4.6 °F 21.2 °F 93% 28.97 in 0.1 mi NNW 33.4 mph 50.6 mph N/A Snow Heavy Snow
3:00 AM 22 °F - 20 °F 90% 29.03 in 0 mi NW 32.2 mph - - Snow Light Snow
3:00 AM 23.0 °F 5.4 °F 19.4 °F 86% 29.03 in 0.5 mi NW 29.9 mph 54.1 mph N/A Snow Heavy Snow
4:00 AM 21.2 °F 3.3 °F 19.4 °F 93% 29.09 in 0.5 mi NW 28.8 mph 49.5 mph N/A Snow Heavy Snow
5:00 AM 21.2 °F 4.2 °F 19.4 °F 93% 29.17 in 0.2 mi NW 25.3 mph 48.3 mph N/A Snow Heavy Snow
6:00 AM 21.2 °F 5.2 °F 19.4 °F 93% 29.25 in 1.5 mi NW 21.9 mph 43.7 mph N/A Snow Light Snow
6:10 AM 21.2 °F 4.5 °F 19.4 °F 93% 29.26 in 5.0 mi NW 24.2 mph 46.0 mph N/A Snow Light Snow
6:37 AM 23.0 °F 7.2 °F 19.4 °F 86% 29.29 in 2.0 mi NW 23.0 mph 40.3 mph N/A Snow Light Snow
7:00 AM 23.0 °F 7.6 °F 19.4 °F 86% 29.31 in 1.5 mi WNW 21.9 mph 34.5 mph N/A Snow Light Snow
7:25 AM 23.0 °F - 17.6 °F 80% 29.34 in 6.0 mi North - - N/A Snow Light Snow
8:00 AM 23.0 °F 6.0 °F 17.6 °F 80% 29.38 in 3.0 mi WNW 27.6 mph 43.7 mph N/A Snow Light Snow
8:45 AM 23.0 °F 6.6 °F 19.4 °F 86% 29.43 in 1.5 mi WNW 25.3 mph 35.7 mph N/A Snow Light Snow Showers
9:00 AM 23 °F - 19 °F 80% 29.44 in 1 mi WNW 20.7 mph - - Snow Light Snow Showers
9:00 AM 23.0 °F 7.6 °F 19.4 °F 86% 29.44 in 1.5 mi WNW 21.9 mph 32.2 mph N/A Snow Light Snow Showers
9:09 AM 23.0 °F 7.2 °F 19.4 °F 86% 29.45 in 0.8 mi WNW 23.0 mph 42.6 mph N/A Snow Light Snow Showers
9:35 AM 23.0 °F 7.2 °F 17.6 °F 80% 29.48 in 3.0 mi WNW 23.0 mph 35.7 mph N/A Snow Light Snow Showers
10:00 AM 23.0 °F 6.6 °F 15.8 °F 74% 29.50 in 6.0 mi WNW 25.3 mph 35.7 mph N/A Snow Light Snow Showers
11:00 AM 24.8 °F 10.0 °F 15.8 °F 69% 29.56 in 6.0 mi WNW 21.9 mph 41.4 mph N/A Snow Light Snow Showers
11:22 AM 24.8 °F 8.1 °F 14.0 °F 64% 29.58 in 6.0 mi WNW 28.8 mph 41.4 mph N/A Snow Blowing Snow
12:00 PM 24.8 °F 8.4 °F 14.0 °F 64% 29.61 in 6.0 mi WNW 27.6 mph 43.7 mph N/A Snow Blowing Snow
1:00 PM 24.8 °F 8.7 °F 14.0 °F 64% 29.66 in 12.0 mi WNW 26.5 mph 38.0 mph N/A Snow Low Drifting Snow
2:00 PM 26.6 °F 11.1 °F 12.2 °F 55% 29.69 in 12.0 mi West 26.5 mph 40.3 mph N/A Snow Low Drifting Snow
3:00 PM 27 °F - 11 °F 38% 29.74 in 12 mi West 26.5 mph - - Snow Low Drifting Snow
3:00 PM 26.6 °F 11.4 °F 12.2 °F 55% 29.74 in 12.0 mi West 25.3 mph 40.3 mph N/A Snow Low Drifting Snow
4:00 PM 28.4 °F 14.4 °F 8.6 °F 43% 29.79 in 15.0 mi WNW 23.0 mph 39.1 mph N/A Snow Low Drifting Snow
5:00 PM 28.4 °F 14.7 °F 5.0 °F 37% 29.83 in 15.0 mi West 21.9 mph 34.5 mph N/A Snow Low Drifting Snow
6:00 PM 28.4 °F 15.1 °F 3.2 °F 34% 29.88 in 15.0 mi West 20.7 mph 34.5 mph N/A Snow Low Drifting Snow
7:00 PM 26.6 °F 14.3 °F 5.0 °F 40% 29.93 in 15.0 mi West 16.1 mph 26.5 mph N/A Snow Low Drifting Snow
8:00 PM 26.6 °F 16.2 °F 8.6 °F 47% 29.99 in 15.0 mi West 11.5 mph 20.7 mph N/A Snow Low Drifting Snow
9:00 PM 26 °F - 9 °F 34% 30.01 in 15 mi West 13.8 mph - - Snow Low Drifting Snow
9:00 PM 26.6 °F 15.2 °F 8.6 °F 47% 30.01 in 15.0 mi West 13.8 mph 23.0 mph N/A Snow Low Drifting Snow
10:00 PM 24.8 °F 11.1 °F 6.8 °F 46% 30.05 in 15.0 mi West 18.4 mph 31.1 mph N/A Snow Low Drifting Snow
11:00 PM 24.8 °F 12.4 °F 6.8 °F 46% 30.09 in 15.0 mi West 15.0 mph 24.2 mph N/A Snow Low Drifting Snow